FW8149 Weather Reports


time (UTC)temp
C
wind
direction
speed
KPH
gust
KPH
rain 1hr
cm
rain 24hr
cm
rain mn
cm
humidity
%
barometer
mb
20260507061047 8 71 0.0 0.0 0.00 0.00 0.00 87 1016.3
20260507060546 7 244 0.0 0.0 0.00 0.00 0.00 86 1016.3
20260507060045 7 244 0.0 0.0 0.00 0.00 0.00 85 1016.2
20260507055545 7 244 0.0 0.0 0.00 0.00 0.00 85 1016.3
20260507055043 7 244 0.0 0.0 0.00 0.00 0.00 85 1016.3
20260507054550 7 244 0.0 0.0 0.00 0.00 0.00 85 1016.2
20260507054043 7 244 0.0 0.0 0.00 0.00 0.00 85 1016.2
20260507053542 7 244 0.0 0.0 0.00 0.00 0.00 85 1016.2
20260507053047 7 244 0.0 0.0 0.00 0.00 0.00 85 1016.1
20260507052543 7 244 0.0 0.0 0.00 0.00 0.00 85 1016.1
20260507052041 7 244 0.0 0.0 0.00 0.00 0.00 85 1016.2
20260507051541 7 244 0.0 1.6 0.00 0.00 0.00 85 1016.1
20260507051041 7 244 0.0 1.6 0.00 0.00 0.00 84 1016.2
20260507050538 7 244 0.0 3.2 0.00 0.00 0.00 84 1016.0
20260507050039 7 244 0.0 3.2 0.00 0.00 0.00 85 1016.1
20260507045537 8 244 1.6 4.8 0.00 0.00 0.00 84 1016.1
20260507045036 8 244 1.6 4.8 0.00 0.00 0.00 84 1016.0
20260507044536 8 244 1.6 6.4 0.00 0.00 0.00 84 1016.0
20260507044036 8 215 1.6 4.8 0.00 0.00 0.00 84 1016.0
20260507043533 8 76 0.0 0.0 0.00 0.00 0.00 84 1016.0
20260507043036 8 75 0.0 3.2 0.00 0.00 0.00 84 1016.0
20260507042532 8 75 0.0 3.2 0.00 0.00 0.00 84 1015.9
20260507042032 8 50 0.0 0.0 0.00 0.00 0.00 84 1015.9
20260507041532 8 50 0.0 0.0 0.00 0.00 0.00 84 1015.9
20260507041032 8 50 0.0 0.0 0.00 0.00 0.00 84 1015.9
20260507040532 8 50 0.0 1.6 0.00 0.00 0.00 85 1015.9
20260507040035 8 50 0.0 1.6 0.00 0.00 0.00 85 1015.8
20260507035533 8 50 0.0 3.2 0.00 0.00 0.00 85 1015.9
20260507035031 8 50 0.0 3.2 0.00 0.00 0.00 85 1015.8
20260507034530 8 50 0.0 3.2 0.00 0.00 0.00 85 1015.8
20260507034031 8 51 0.0 3.2 0.00 0.00 0.00 84 1015.8
20260507033532 8 51 0.0 3.2 0.00 0.00 0.00 84 1015.8
20260507033028 8 51 0.0 0.0 0.00 0.00 0.00 83 1015.7
20260507032527 8 51 0.0 0.0 0.00 0.00 0.00 83 1015.7
20260507032030 8 51 0.0 0.0 0.00 0.00 0.00 83 1015.7
20260507031527 8 51 0.0 0.0 0.00 0.00 0.00 82 1015.7
20260507031026 8 51 0.0 0.0 0.00 0.00 0.00 83 1015.6
20260507030526 8 51 0.0 0.0 0.00 0.00 0.00 83 1015.7
20260507030030 8 51 0.0 0.0 0.00 0.00 0.00 83 1015.7
20260507025526 8 51 0.0 0.0 0.00 0.00 0.00 83 1015.7
20260507025026 8 51 0.0 0.0 0.00 0.00 0.00 83 1015.6
20260507024525 8 51 0.0 0.0 0.00 0.00 0.00 83 1015.6
20260507024124 8 51 0.0 0.0 0.00 0.00 0.00 83 1015.7
20260507023524 8 51 0.0 0.0 0.00 0.00 0.00 83 1015.7
20260507023028 8 51 0.0 0.0 0.00 0.00 0.00 83 1015.7
20260507022527 8 51 0.0 0.0 0.00 0.00 0.00 84 1015.6
20260507022024 8 51 0.0 0.0 0.00 0.00 0.00 84 1015.7
20260507021524 8 51 0.0 0.0 0.00 0.00 0.00 84 1015.6
20260507021023 8 51 0.0 0.0 0.00 0.00 0.00 83 1015.5
20260507020525 8 51 0.0 0.0 0.00 0.00 0.00 83 1015.6
20260507020024 8 51 0.0 0.0 0.00 0.00 0.00 83 1015.5
20260507015526 8 51 0.0 0.0 0.00 0.00 0.00 84 1015.5
20260507015023 8 51 0.0 0.0 0.00 0.00 0.00 83 1015.5
20260507014522 8 51 0.0 0.0 0.00 0.00 0.00 84 1015.5
20260507014022 8 51 0.0 0.0 0.00 0.00 0.00 83 1015.6
20260507013521 8 51 0.0 0.0 0.00 0.00 0.00 83 1015.6
20260507013030 8 51 0.0 0.0 0.00 0.00 0.00 82 1015.5
20260507012523 8 51 0.0 0.0 0.00 0.00 0.00 82 1015.5
20260507012020 8 51 0.0 0.0 0.00 0.00 0.00 81 1015.5
20260507011533 8 51 0.0 0.0 0.00 0.00 0.00 81 1015.6
20260507011018 8 51 0.0 0.0 0.00 0.00 0.00 81 1015.6
20260507010518 8 51 0.0 1.6 0.00 0.00 0.00 81 1015.6
20260507010018 8 51 0.0 1.6 0.00 0.00 0.00 81 1015.5
20260507005517 9 51 0.0 1.6 0.00 0.00 0.00 80 1015.5
20260507005017 9 51 0.0 1.6 0.00 0.00 0.00 80 1015.5
20260507004518 9 52 0.0 0.0 0.00 0.00 0.00 80 1015.5
20260507004015 9 52 0.0 3.2 0.00 0.00 0.00 80 1015.5
20260507003514 9 52 0.0 3.2 0.00 0.00 0.00 79 1015.5
20260507003018 9 51 0.0 1.6 0.00 0.00 0.00 79 1015.6
20260507002513 9 51 0.0 1.6 0.00 0.00 0.00 80 1015.5
20260507002014 9 51 0.0 3.2 0.00 0.00 0.00 79 1015.6
20260507001512 10 51 0.0 3.2 0.00 0.00 0.00 79 1015.6
20260507001012 10 53 0.0 3.2 0.00 0.00 0.00 79 1015.6
20260507000516 10 53 0.0 3.2 0.00 0.00 0.00 79 1015.7
20260507000012 10 53 0.0 3.2 0.00 0.00 0.00 79 1015.5
20260506235512 10 53 0.0 3.2 0.00 0.00 0.00 79 1015.5
20260506235010 10 53 0.0 4.8 0.00 0.00 0.00 78 1015.6
20260506234511 10 55 0.0 4.8 0.00 0.00 0.00 78 1015.5
20260506234008 10 75 0.0 4.8 0.00 0.00 0.00 78 1015.5
20260506233508 10 69 0.0 4.8 0.00 0.00 0.00 78 1015.5
20260506233007 10 47 0.0 4.8 0.00 0.00 0.00 78 1015.5
20260506232506 10 51 0.0 4.8 0.00 0.00 0.00 78 1015.6
20260506232011 10 42 1.6 6.4 0.00 0.00 0.00 77 1015.5
20260506231508 10 42 0.0 6.4 0.00 0.00 0.00 77 1015.5
20260506231004 10 46 1.6 6.4 0.00 0.00 0.00 77 1015.4
20260506230504 10 40 0.0 3.2 0.00 0.00 0.00 77 1015.4
20260506230004 10 40 1.6 4.8 0.00 0.00 0.00 77 1015.5
20260506225504 10 39 0.0 4.8 0.00 0.00 0.00 77 1015.4
20260506225004 10 32 1.6 4.8 0.00 0.00 0.00 76 1015.5
20260506224503 10 33 1.6 4.8 0.00 0.00 0.00 76 1015.4
20260506224002 10 42 1.6 4.8 0.00 0.00 0.00 76 1015.3
20260506223503 10 17 1.6 6.4 0.00 0.00 0.00 76 1015.4
20260506223002 10 24 1.6 6.4 0.00 0.00 0.00 75 1015.3
20260506222605 10 17 1.6 6.4 0.00 0.00 0.00 75 1015.3
20260506222004 10 5 1.6 6.4 0.00 0.00 0.00 75 1015.3
20260506221501 10 9 1.6 6.4 0.00 0.00 0.00 74 1015.2
20260506221001 10 37 0.0 4.8 0.00 0.00 0.00 74 1015.2
20260506220501 10 29 0.0 4.8 0.00 0.00 0.00 74 1015.2
20260506220002 10 28 0.0 4.8 0.00 0.00 0.00 73 1015.1
20260506215501 10 29 1.6 6.4 0.00 0.00 0.00 73 1015.2
20260506215100 10 28 0.0 6.4 0.00 0.00 0.00 73 1015.2
20260506214601 11 33 0.0 8.0 0.00 0.00 0.00 73 1015.2
20260506214059 11 55 1.6 8.0 0.00 0.00 0.00 72 1015.1
20260506213600 11 26 1.6 6.4 0.00 0.00 0.00 72 1015.2
20260506213103 11 34 0.0 9.7 0.00 0.00 0.00 71 1015.1
20260506212559 11 32 3.2 9.7 0.00 0.00 0.00 71 1015.1
20260506212058 11 38 3.2 9.7 0.00 0.00 0.00 70 1015.1
20260506211558 11 40 3.2 9.7 0.00 0.00 0.00 70 1015.1
20260506211101 11 37 1.6 8.0 0.00 0.00 0.00 69 1015.0
20260506210559 11 56 1.6 8.0 0.00 0.00 0.00 69 1015.0
20260506210119 11 53 1.6 9.7 0.00 0.00 0.00 69 1015.0
20260506205557 11 49 4.8 9.7 0.00 0.00 0.00 69 1014.9
20260506205057 11 42 3.2 9.7 0.00 0.00 0.00 69 1015.0
20260506204556 11 29 3.2 8.0 0.00 0.00 0.00 69 1014.9
20260506204056 11 22 1.6 9.7 0.00 0.00 0.00 70 1014.8
20260506203555 11 50 3.2 14.5 0.00 0.00 0.00 70 1014.9
20260506203141 11 55 3.2 14.5 0.00 0.00 0.00 69 1014.8
20260506202554 11 24 3.2 11.3 0.00 0.00 0.00 69 1014.7
20260506202055 11 30 3.2 11.3 0.00 0.00 0.00 68 1014.7
20260506201554 11 5 4.8 9.7 0.00 0.00 0.00 68 1014.7
20260506201053 11 5 3.2 8.0 0.00 0.00 0.00 67 1014.6
20260506200552 11 69 3.2 9.7 0.00 0.00 0.00 67 1014.5
20260506200053 11 5 3.2 9.7 0.00 0.00 0.00 67 1014.5
20260506195552 11 36 4.8 9.7 0.00 0.00 0.00 67 1014.4
20260506195053 11 38 3.2 8.0 0.00 0.00 0.00 67 1014.4
20260506194551 11 24 3.2 9.7 0.00 0.00 0.00 67 1014.4
20260506194050 11 23 3.2 9.7 0.00 0.00 0.00 66 1014.3
20260506193549 12 37 3.2 8.0 0.00 0.00 0.00 66 1014.1
20260506193049 12 15 3.2 11.3 0.00 0.00 0.00 66 1014.2
20260506192549 12 39 4.8 11.3 0.00 0.00 0.00 65 1014.0
20260506192049 12 39 4.8 14.5 0.00 0.00 0.00 66 1014.1
20260506191552 12 41 4.8 14.5 0.00 0.00 0.00 66 1014.1
20260506191048 12 55 4.8 16.1 0.00 0.00 0.00 66 1014.1
20260506190647 12 59 6.4 16.1 0.00 0.00 0.00 66 1014.1
20260506190050 12 40 4.8 14.5 0.00 0.00 0.00 66 1014.1
20260506185548 12 55 4.8 14.5 0.00 0.00 0.00 66 1014.0
20260506185046 12 38 4.8 14.5 0.00 0.00 0.00 66 1014.0
20260506184555 12 24 1.6 9.7 0.00 0.00 0.00 66 1013.9
20260506184049 12 88 0.0 6.4 0.00 0.00 0.00 66 1013.9
20260506183547 12 77 1.6 8.0 0.00 0.00 0.00 66 1013.9
20260506183045 12 32 3.2 9.7 0.00 0.00 0.00 66 1013.8
20260506182544 12 51 0.0 9.7 0.00 0.00 0.00 65 1013.8
20260506182044 12 113 1.6 8.0 0.00 0.00 0.00 65 1013.7
20260506181544 12 82 0.0 8.0 0.00 0.00 0.00 64 1013.7
20260506181043 12 66 1.6 12.9 0.00 0.00 0.00 62 1013.7
20260506180543 12 24 4.8 12.9 0.00 0.00 0.00 61 1013.6
20260506180045 12 51 4.8 14.5 0.00 0.00 0.00 61 1013.5
20260506175542 12 30 3.2 14.5 0.00 0.00 0.00 60 1013.4
20260506175045 12 40 3.2 12.9 0.00 0.00 0.00 60 1013.4
20260506174546 12 42 3.2 9.7 0.00 0.00 0.00 60 1013.3
20260506174045 12 59 4.8 9.7 0.00 0.00 0.00 60 1013.3
20260506173542 13 40 3.2 14.5 0.00 0.00 0.00 60 1013.3
20260506173051 13 56 3.2 14.5 0.00 0.00 0.00 60 1013.2
20260506172641 13 36 4.8 12.9 0.00 0.00 0.00 60 1013.2
20260506172041 13 68 4.8 14.5 0.00 0.00 0.00 60 1013.1
20260506171541 13 38 3.2 12.9 0.00 0.00 0.00 59 1013.2
20260506171041 13 80 3.2 12.9 0.00 0.00 0.00 59 1013.1
20260506170541 13 46 1.6 9.7 0.00 0.00 0.00 59 1013.2
20260506170040 13 32 4.8 9.7 0.00 0.00 0.00 59 1013.1
20260506165540 13 80 3.2 9.7 0.00 0.00 0.00 58 1013.1
20260506165040 14 92 1.6 16.1 0.00 0.00 0.00 58 1013.1
20260506164546 14 34 4.8 16.1 0.00 0.00 0.00 58 1013.1
20260506164039 14 32 3.2 14.5 0.00 0.00 0.00 58 1013.1
20260506163539 15 58 1.6 14.5 0.00 0.00 0.00 58 1013.1
20260506163055 15 29 1.6 9.7 0.00 0.00 0.00 59 1013.1
20260506162539 15 36 4.8 12.9 0.00 0.00 0.00 58 1013.1
20260506162040 15 46 4.8 12.9 0.00 0.00 0.00 59 1013.1
20260506161539 15 284 3.2 9.7 0.00 0.00 0.00 59 1013.2
20260506161044 14 23 3.2 11.3 0.00 0.00 0.00 62 1013.2
20260506160539 14 45 1.6 12.9 0.00 0.00 0.00 62 1013.3
20260506160038 13 39 1.6 9.7 0.00 0.00 0.00 61 1013.3
20260506155538 13 57 4.8 9.7 0.00 0.00 0.00 62 1013.3
20260506155038 13 40 3.2 9.7 0.00 0.00 0.00 62 1013.4
20260506154543 13 74 3.2 11.3 0.00 0.00 0.00 62 1013.4
20260506154041 13 50 4.8 14.5 0.00 0.00 0.00 62 1013.4
20260506153537 13 43 4.8 14.5 0.00 0.00 0.00 63 1013.4
20260506153037 13 52 3.2 9.7 0.00 0.00 0.00 64 1013.4
20260506152537 13 49 1.6 8.0 0.00 0.00 0.00 65 1013.4
20260506152037 13 78 3.2 12.9 0.00 0.00 0.00 65 1013.4
20260506151541 13 61 4.8 12.9 0.00 0.00 0.00 65 1013.5
20260506151038 13 50 3.2 9.7 0.00 0.00 0.00 65 1013.5
20260506150536 13 40 4.8 12.9 0.00 0.00 0.00 65 1013.5
20260506150037 13 24 4.8 12.9 0.00 0.00 0.00 65 1013.5
20260506145537 13 63 3.2 9.7 0.00 0.00 0.00 65 1013.5
20260506145036 13 47 4.8 12.9 0.00 0.00 0.00 64 1013.5
20260506144535 13 32 3.2 12.9 0.00 0.00 0.00 64 1013.5
20260506144035 13 20 3.2 14.5 0.00 0.00 0.00 63 1013.5
20260506143536 13 40 4.8 12.9 0.00 0.00 0.00 63 1013.4
20260506143036 13 48 4.8 14.5 0.00 0.00 0.00 64 1013.4
20260506142538 13 74 4.8 14.5 0.00 0.00 0.00 63 1013.4
20260506142035 13 55 3.2 17.7 0.00 0.00 0.00 62 1013.4
20260506141535 14 43 6.4 17.7 0.00 0.00 0.00 61 1013.3
20260506141035 14 44 6.4 16.1 0.00 0.00 0.00 61 1013.3
20260506140537 14 68 3.2 16.1 0.00 0.00 0.00 60 1013.2
20260506140036 14 46 3.2 12.9 0.00 0.00 0.00 61 1013.3
20260506135534 14 38 4.8 14.5 0.00 0.00 0.00 61 1013.3
20260506135034 14 65 6.4 16.1 0.00 0.00 0.00 60 1013.4
20260506134534 14 57 4.8 16.1 0.00 0.00 0.00 61 1013.3
20260506134034 14 30 3.2 16.1 0.00 0.00 0.00 61 1013.3
20260506133533 14 18 1.6 14.5 0.00 0.00 0.00 61 1013.3
20260506133034 14 355 6.4 16.1 0.00 0.00 0.00 59 1013.5
20260506132533 14 39 6.4 16.1 0.00 0.00 0.00 59 1013.4
20260506132034 15 64 3.2 17.7 0.00 0.00 0.00 59 1013.2
20260506131537 15 22 6.4 19.3 0.00 0.00 0.00 58 1013.3
20260506131033 15 64 8.0 19.3 0.00 0.00 0.00 57 1013.2
20260506130532 15 33 4.8 16.1 0.00 0.00 0.00 55 1013.3
20260506130031 15 44 3.2 14.5 0.00 0.00 0.00 55 1013.3
20260506125531 15 34 1.6 14.5 0.00 0.00 0.00 56 1013.2
20260506125030 15 72 4.8 17.7 0.00 0.00 0.00 58 1013.3
20260506124530 15 111 6.4 17.7 0.00 0.00 0.00 58 1013.3
20260506124030 15 45 9.7 17.7 0.00 0.00 0.00 58 1013.3
20260506123529 14 40 6.4 14.5 0.00 0.00 0.00 60 1013.3
20260506123030 14 355 4.8 14.5 0.00 0.00 0.00 60 1013.4
20260506122531 14 46 4.8 14.5 0.00 0.00 0.00 60 1013.3
20260506122028 14 49 4.8 17.7 0.00 0.00 0.00 60 1013.4
20260506121528 14 23 8.0 17.7 0.00 0.00 0.00 58 1013.4
20260506121029 15 80 6.4 20.9 0.00 0.00 0.00 58 1013.4
20260506120529 15 44 8.0 20.9 0.00 0.00 0.00 58 1013.4
20260506120028 15 61 4.8 16.1 0.00 0.00 0.00 58 1013.4
20260506115528 15 70 3.2 17.7 0.00 0.00 0.00 60 1013.5
20260506115026 14 41 6.4 22.5 0.00 0.00 0.00 60 1013.5
20260506114526 15 63 8.0 22.5 0.00 0.00 0.00 58 1013.4
20260506114028 15 51 4.8 17.7 0.00 0.00 0.00 56 1013.4
20260506113527 15 5 4.8 16.1 0.00 0.00 0.00 57 1013.3
20260506113025 15 56 6.4 19.3 0.00 0.00 0.00 55 1013.4
20260506112528 15 63 8.0 19.3 0.00 0.00 0.00 55 1013.4
20260506112028 15 281 6.4 17.7 0.00 0.00 0.00 56 1013.4
20260506111528 14 52 4.8 17.7 0.00 0.00 0.00 56 1013.4
20260506111022 14 36 4.8 17.7 0.00 0.00 0.00 56 1013.4
20260506110521 13 5 4.8 17.7 0.00 0.00 0.00 58 1013.5
20260506110022 13 33 4.8 17.7 0.00 0.00 0.00 57 1013.5
20260506105522 13 17 8.0 22.5 0.00 0.00 0.00 57 1013.5
20260506105022 13 253 6.4 22.5 0.00 0.00 0.00 57 1013.5
20260506104518 14 35 3.2 20.9 0.00 0.00 0.00 57 1013.6
20260506104021 14 27 8.0 20.9 0.00 0.00 0.00 56 1013.5
20260506103517 14 5 6.4 19.3 0.00 0.00 0.00 56 1013.5
20260506103016 14 45 6.4 19.3 0.00 0.00 0.00 57 1013.4
20260506102516 13 66 6.4 19.3 0.00 0.00 0.00 57 1013.6
20260506102015 13 46 6.4 20.9 0.00 0.00 0.00 58 1013.5
20260506101514 13 30 9.7 20.9 0.00 0.00 0.00 58 1013.6
20260506101013 13 24 9.7 19.3 0.00 0.00 0.00 57 1013.6
20260506100512 13 39 6.4 17.7 0.00 0.00 0.00 57 1013.6
20260506100010 13 69 6.4 17.7 0.00 0.00 0.00 58 1013.5
20260506095509 13 170 3.2 12.9 0.00 0.00 0.00 58 1013.5
20260506095011 13 48 3.2 14.5 0.00 0.00 0.00 60 1013.4
20260506094505 13 38 6.4 14.5 0.00 0.00 0.00 60 1013.5
20260506094005 12 27 4.8 16.1 0.00 0.00 0.00 61 1013.5
20260506093503 12 32 8.0 20.9 0.00 0.00 0.00 60 1013.5
20260506093102 12 38 6.4 20.9 0.00 0.00 0.00 61 1013.4
20260506092533 12 39 8.0 17.7 0.00 0.00 0.00 60 1013.5
20260506092046 12 51 6.4 17.7 0.00 0.00 0.00 60 1013.5
20260506091546 12 57 8.0 17.7 0.00 0.00 0.00 60 1013.4
20260506091045 12 105 4.8 14.5 0.00 0.00 0.00 59 1013.4
20260506090545 12 188 3.2 17.7 0.00 0.00 0.00 61 1013.3
20260506090058 12 34 6.4 17.7 0.00 0.00 0.00 63 1013.4
20260506085543 12 57 4.8 11.3 0.00 0.00 0.00 64 1013.4
20260506085042 12 34 3.2 8.0 0.00 0.00 0.00 64 1013.5
20260506084546 12 47 3.2 11.3 0.00 0.00 0.00 64 1013.5
20260506084041 12 244 3.2 9.7 0.00 0.00 0.00 64 1013.4
20260506083540 12 355 3.2 9.7 0.00 0.00 0.00 66 1013.4
20260506083039 11 15 0.0 0.0 0.00 0.00 0.00 67 1013.4
20260506082540 11 360 0.0 0.0 0.00 0.00 0.00 67 1013.3
20260506082036 11 42 0.0 0.0 0.00 0.00 0.00 66 1013.3
20260506081541 11 17 0.0 0.0 0.00 0.00 0.00 67 1013.3
20260506081034 11 46 0.0 0.0 0.00 0.00 0.00 68 1013.4
20260506080535 11 27 0.0 9.7 0.00 0.00 0.00 70 1013.4
20260506073030 10 104 1.6 8.0 0.00 0.00 0.00 74 1013.4
20260506072530 10 57 1.6 12.9 0.00 0.00 0.00 74 1013.5
20260506072030 10 56 3.2 12.9 0.00 0.00 0.00 75 1013.5
20260506071529 9 42 1.6 11.3 0.00 0.00 0.00 75 1013.4
20260506071028 9 71 3.2 14.5 0.00 0.00 0.00 75 1013.5
20260506070528 9 334 3.2 16.1 0.00 0.00 0.00 75 1013.4
20260506062025 8 40 6.4 17.7 0.00 0.00 0.00 74 1013.3
20260506061527 8 44 6.4 12.9 0.00 0.00 0.00 74 1013.3